Location: Caltech
(34.1382°N, 118.1253°W)
Time: 10:28:15
(UTC-08:00)

PCSat - Visible Passes

Search period start: 26 January 2015 00:00
Search period end: 05 February 2015 00:00
Orbit: 786 x 796 km, 67.1° (Epoch: 24 January)

Date Brightness Start Highest point End Pass type
(mag) Time Alt. Az. Time Alt. Az. Time Alt. Az.
26 Jan 11.8 03:40:05 21° E 03:40:05 21° E 03:43:30 10° ENE visible
26 Jan 9.9 05:20:57 34° W 05:22:35 43° WNW 05:27:45 10° NNE visible
27 Jan 12.6 03:11:48 10° ENE 03:11:48 10° ENE 03:11:53 10° ENE visible
27 Jan 9.7 04:52:37 55° NNW 04:52:37 55° NNW 04:57:15 10° NNE visible
28 Jan 10.9 04:23:52 31° NNE 04:23:52 31° NNE 04:26:40 10° NNE visible
28 Jan 11.4 06:04:39 11° NW 06:05:32 12° NW 06:07:12 10° NNW visible
29 Jan 11.9 03:54:49 17° NNE 03:54:49 17° NNE 03:55:58 10° NNE visible
29 Jan 11.3 05:35:36 15° NW 05:35:36 15° NW 05:37:44 10° NNW visible
30 Jan 11.5 05:06:21 15° NNW 05:06:21 15° NNW 05:07:43 10° N visible
31 Jan 11.8 04:36:57 12° N 04:36:57 12° N 04:37:29 10° N visible
